When you browse on this site, cookies collect data to enhance your experience and personalize the content and advertising you see.
Visit our Privacy Policy to learn more. By continuing to use the site, you agree to this use of cookies and data.
  • In Österreich
  • Länderverzeichnis
  • Für 7 Tage
  • Wassertemperatur
  • Wetterkarte
  • News
  • Widgets
  • user-avatar
    Anmelden

    Stündliche Wetter Budamsha

    Heute, 24 Januar, Freitag

    Zeit Temperatur Niederschläge Wind Luftdruck Luftfeuchtigkeit
    00:00 -5°C° 0.2 mm 2 m/S 722 mmHg 97%
    01:00 -3°C° 0.2 mm 1 m/S 722 mmHg 97%
    02:00 -5°C° 0.3 mm 2 m/S 723 mmHg 96%
    03:00 -6°C° 0.3 mm 3 m/S 723 mmHg 96%
    04:00 -6°C° 0 mm 3 m/S 723 mmHg 95%
    05:00 -7°C° 0.1 mm 3 m/S 723 mmHg 95%
    06:00 -8°C° 0.1 mm 3 m/S 723 mmHg 95%
    07:00 -9°C° 0.1 mm 3 m/S 723 mmHg 96%
    08:00 -9°C° 0.1 mm 3 m/S 724 mmHg 95%
    09:00 -9°C° 0.1 mm 4 m/S 725 mmHg 94%
    10:00 -10°C° 0.1 mm 5 m/S 725 mmHg 93%
    11:00 -11°C° 0 mm 5 m/S 726 mmHg 92%
    12:00 -10°C° 0 mm 4 m/S 726 mmHg 92%
    13:00 -10°C° 0 mm 4 m/S 726 mmHg 91%
    14:00 -11°C° 0 mm 4 m/S 727 mmHg 92%
    15:00 -12°C° 0 mm 4 m/S 727 mmHg 92%
    16:00 -12°C° 0 mm 3 m/S 727 mmHg 92%
    17:00 -15°C° 0 mm 4 m/S 728 mmHg 92%
    18:00 -16°C° 0 mm 4 m/S 728 mmHg 92%
    19:00 -17°C° 0 mm 4 m/S 729 mmHg 92%
    20:00 -18°C° 0 mm 4 m/S 729 mmHg 92%
    21:00 -18°C° 0 mm 4 m/S 730 mmHg 91%
    22:00 -19°C° 0 mm 4 m/S 730 mmHg 91%
    23:00 -20°C° 0 mm 4 m/S 731 mmHg 92%

    Morgen, 25 Januar, Samstag

    Zeit Temperatur Niederschläge Wind Luftdruck Luftfeuchtigkeit
    00:00 -20°C° 0 mm 4 m/S 731 mmHg 93%
    01:00 -22°C° 0 mm 4 m/S 731 mmHg 93%
    02:00 -22°C° 0 mm 4 m/S 731 mmHg 94%
    03:00 -23°C° 0 mm 4 m/S 731 mmHg 95%
    04:00 -23°C° 0 mm 4 m/S 732 mmHg 95%
    05:00 -23°C° 0 mm 4 m/S 731 mmHg 96%
    06:00 -23°C° 0 mm 4 m/S 731 mmHg 96%
    07:00 -23°C° 0 mm 4 m/S 731 mmHg 96%
    08:00 -22°C° 0 mm 5 m/S 731 mmHg 94%
    09:00 -21°C° 0 mm 5 m/S 731 mmHg 93%
    10:00 -21°C° 0 mm 6 m/S 731 mmHg 91%
    11:00 -19°C° 0 mm 7 m/S 730 mmHg 89%
    12:00 -18°C° 0 mm 7 m/S 730 mmHg 87%
    13:00 -16°C° 0 mm 8 m/S 729 mmHg 85%
    14:00 -16°C° 0.1 mm 8 m/S 729 mmHg 87%
    15:00 -15°C° 0.1 mm 9 m/S 729 mmHg 88%
    16:00 -14°C° 0.1 mm 9 m/S 728 mmHg 90%
    17:00 -14°C° 0 mm 9 m/S 728 mmHg 89%
    18:00 -13°C° 0 mm 8 m/S 727 mmHg 89%
    19:00 -13°C° 0 mm 8 m/S 727 mmHg 88%
    20:00 -12°C° 0 mm 8 m/S 726 mmHg 89%
    21:00 -12°C° 0 mm 7 m/S 726 mmHg 90%
    22:00 -12°C° 0 mm 7 m/S 726 mmHg 90%
    23:00 -11°C° 0 mm 7 m/S 725 mmHg 91%

    übermorgen, 26 Januar, Sonntag

    Zeit Temperatur Niederschläge Wind Luftdruck Luftfeuchtigkeit
    00:00 -11°C° 0 mm 7 m/S 725 mmHg 91%
    01:00 -9°C° 0 mm 7 m/S 725 mmHg 92%
    02:00 -9°C° 0.1 mm 7 m/S 724 mmHg 92%
    03:00 -8°C° 0.1 mm 7 m/S 723 mmHg 92%
    04:00 -8°C° 0.1 mm 8 m/S 723 mmHg 92%
    05:00 -8°C° 0.2 mm 8 m/S 722 mmHg 93%
    06:00 -7°C° 0.2 mm 8 m/S 722 mmHg 94%
    07:00 -8°C° 0.2 mm 9 m/S 721 mmHg 94%
    08:00 -8°C° 0.4 mm 9 m/S 720 mmHg 94%
    09:00 -6°C° 0.4 mm 9 m/S 720 mmHg 94%
    10:00 -6°C° 0.4 mm 9 m/S 719 mmHg 94%
    11:00 -6°C° 0.2 mm 9 m/S 718 mmHg 94%
    12:00 -6°C° 0.2 mm 9 m/S 718 mmHg 94%
    13:00 -5°C° 0.2 mm 9 m/S 717 mmHg 93%
    14:00 -6°C° 0.2 mm 9 m/S 718 mmHg 89%
    15:00 -8°C° 0.2 mm 9 m/S 718 mmHg 86%
    16:00 -8°C° 0.2 mm 9 m/S 718 mmHg 82%
    17:00 -10°C° 0 mm 8 m/S 718 mmHg 85%
    18:00 -12°C° 0 mm 7 m/S 718 mmHg 87%
    19:00 -12°C° 0 mm 5 m/S 719 mmHg 90%
    20:00 -12°C° 0 mm 5 m/S 719 mmHg 91%
    21:00 -12°C° 0 mm 5 m/S 719 mmHg 92%
    22:00 -12°C° 0 mm 5 m/S 719 mmHg 93%
    23:00 -11°C° 0.2 mm 6 m/S 720 mmHg 89%

    27 Januar, Montag

    Zeit Temperatur Niederschläge Wind Luftdruck Luftfeuchtigkeit
    00:00 -11°C° 0.2 mm 7 m/S 721 mmHg 86%
    01:00 -10°C° 0.2 mm 8 m/S 722 mmHg 83%
    02:00 -12°C° 0 mm 8 m/S 723 mmHg 83%
    03:00 -14°C° 0 mm 7 m/S 724 mmHg 84%
    04:00 -16°C° 0 mm 6 m/S 725 mmHg 84%
    05:00 -17°C° 0 mm 6 m/S 726 mmHg 86%
    06:00 -18°C° 0 mm 5 m/S 727 mmHg 87%
    07:00 -19°C° 0 mm 5 m/S 728 mmHg 89%
    08:00 -19°C° 0 mm 5 m/S 728 mmHg 88%
    09:00 -17°C° 0 mm 4 m/S 729 mmHg 87%
    10:00 -17°C° 0 mm 4 m/S 729 mmHg 87%
    11:00 -17°C° 0 mm 5 m/S 729 mmHg 86%
    12:00 -15°C° 0 mm 5 m/S 730 mmHg 86%
    13:00 -15°C° 0 mm 6 m/S 730 mmHg 86%
    14:00 -14°C° 0 mm 5 m/S 730 mmHg 86%
    15:00 -14°C° 0 mm 5 m/S 730 mmHg 87%
    16:00 -15°C° 0 mm 5 m/S 730 mmHg 88%
    17:00 -14°C° 0.1 mm 5 m/S 730 mmHg 90%
    18:00 -13°C° 0.1 mm 5 m/S 730 mmHg 91%
    19:00 -14°C° 0.1 mm 6 m/S 730 mmHg 93%
    20:00 -13°C° 0.1 mm 5 m/S 730 mmHg 93%
    21:00 -12°C° 0.1 mm 4 m/S 729 mmHg 94%
    22:00 -12°C° 0.1 mm 3 m/S 729 mmHg 94%
    23:00 -12°C° 0.1 mm 3 m/S 729 mmHg 94%

    28 Januar, Dienstag

    Zeit Temperatur Niederschläge Wind Luftdruck Luftfeuchtigkeit
    00:00 -10°C° 0.1 mm 2 m/S 729 mmHg 95%
    01:00 -9°C° 0.1 mm 1 m/S 729 mmHg 95%
    02:00 -12°C° 0 mm 2 m/S 729 mmHg 94%
    03:00 -14°C° 0 mm 3 m/S 730 mmHg 93%
    04:00 -16°C° 0 mm 4 m/S 730 mmHg 91%
    05:00 -17°C° 0 mm 4 m/S 731 mmHg 91%
    06:00 -17°C° 0 mm 4 m/S 732 mmHg 91%
    07:00 -18°C° 0 mm 4 m/S 733 mmHg 91%
    08:00 -17°C° 0 mm 4 m/S 734 mmHg 91%
    09:00 -17°C° 0 mm 4 m/S 735 mmHg 90%
    10:00 -17°C° 0 mm 4 m/S 735 mmHg 89%
    11:00 -17°C° 0 mm 4 m/S 736 mmHg 89%
    12:00 -15°C° 0 mm 3 m/S 737 mmHg 88%
    13:00 -15°C° 0 mm 3 m/S 737 mmHg 88%
    14:00 -15°C° 0 mm 3 m/S 738 mmHg 87%
    15:00 -15°C° 0 mm 2 m/S 739 mmHg 87%
    16:00 -16°C° 0 mm 2 m/S 739 mmHg 87%
    17:00 -17°C° 0 mm 2 m/S 740 mmHg 87%
    18:00 -18°C° 0 mm 2 m/S 741 mmHg 87%
    19:00 -17°C° 0 mm 1 m/S 741 mmHg 88%
    20:00 -17°C° 0 mm 1 m/S 742 mmHg 86%
    21:00 -18°C° 0 mm 1 m/S 742 mmHg 85%
    22:00 -18°C° 0 mm 1 m/S 742 mmHg 84%
    23:00 -19°C° 0 mm 1 m/S 743 mmHg 82%

    29 Januar, Mittwoch

    Zeit Temperatur Niederschläge Wind Luftdruck Luftfeuchtigkeit
    00:00 -19°C° 0 mm 1 m/S 743 mmHg 80%
    01:00 -19°C° 0 mm 1 m/S 743 mmHg 78%
    02:00 -20°C° 0 mm 1 m/S 743 mmHg 76%
    03:00 -20°C° 0 mm 1 m/S 744 mmHg 75%
    04:00 -20°C° 0 mm 1 m/S 744 mmHg 74%
    05:00 -21°C° 0 mm 1 m/S 744 mmHg 73%
    06:00 -21°C° 0 mm 1 m/S 745 mmHg 72%
    07:00 -21°C° 0 mm 1 m/S 745 mmHg 72%
    08:00 -21°C° 0 mm 1 m/S 745 mmHg 74%
    09:00 -20°C° 0 mm 1 m/S 746 mmHg 77%
    10:00 -19°C° 0 mm 1 m/S 746 mmHg 80%
    11:00 -19°C° 0 mm 1 m/S 746 mmHg 81%
    12:00 -18°C° 0 mm 1 m/S 747 mmHg 82%
    13:00 -17°C° 0 mm 1 m/S 747 mmHg 83%
    14:00 -18°C° 0 mm 1 m/S 747 mmHg 83%
    15:00 -21°C° 0 mm 2 m/S 747 mmHg 83%
    16:00 -21°C° 0 mm 2 m/S 747 mmHg 83%
    17:00 -23°C° 0 mm 2 m/S 748 mmHg 83%
    18:00 -24°C° 0 mm 2 m/S 748 mmHg 83%
    19:00 -24°C° 0 mm 2 m/S 749 mmHg 82%
    20:00 -25°C° 0 mm 2 m/S 749 mmHg 83%
    21:00 -25°C° 0 mm 2 m/S 749 mmHg 83%
    22:00 -25°C° 0 mm 2 m/S 749 mmHg 83%
    23:00 -25°C° 0 mm 2 m/S 749 mmHg 84%
    Mehr zeigen